Simultaneous Nadir Overpasses (SNOs) Predictions

Prediction of SNOs between FY3D and METOP-C Satellite Orbit:

Table of predicted SNOs for the next 14.0 days since TLE Epoch: 10/2/2021
Index Date (FY3D) Time (FY3D) Lat,Lon (FY3D) SZA (FY3D ) Date (METOP-C) Time (METOP-C) Lat,Lon (METOP-C) SZA (METOP-C ) Distance(km) Time Diff (sec)
1 10/02/2021 03:15:36 73.51, 125.04 77.08 10/02/2021 03:14:58 73.52, 125.00 77.09 1.41 38
2 10/02/2021 04:06:19 -73.51, -67.65 102.91 10/02/2021 04:05:40 -73.54, -67.62 102.88 3.29 39
3 10/02/2021 04:57:05 73.51, 99.66 77.11 10/02/2021 04:56:20 73.50, 99.62 77.10 2.35 45
4 10/02/2021 05:47:48 -73.52, -93.03 102.88 10/02/2021 05:47:02 -73.52, -93.00 102.87 1.06 46
5 10/02/2021 06:38:34 73.52, 74.28 77.15 10/02/2021 06:37:41 73.53, 74.35 77.16 2.47 53
6 10/02/2021 07:29:17 -73.52,-118.41 102.84 10/02/2021 07:28:24 -73.51,-118.38 102.86 1.96 53
7 10/02/2021 08:20:03 73.52, 48.90 77.18 10/02/2021 08:19:03 73.51, 48.97 77.17 2.60 60
8 10/02/2021 09:10:45 -73.48,-143.67 102.86 10/02/2021 09:09:46 -73.49,-143.76 102.85 3.16 59
9 10/02/2021 10:01:31 73.48, 23.63 77.16 10/02/2021 10:00:25 73.49, 23.59 77.18 2.19 66
10 10/02/2021 10:52:14 -73.48,-169.05 102.83 10/02/2021 10:51:08 -73.47,-169.14 102.84 3.23 66
11 10/02/2021 11:43:00 73.48, -1.75 77.19 10/02/2021 11:41:47 73.47, -1.80 77.19 1.90 73
12 10/02/2021 12:33:43 -73.48, 165.57 102.80 10/02/2021 12:32:29 -73.50, 165.59 102.78 1.86 74
13 10/02/2021 13:24:25 73.29, -26.67 77.01 10/02/2021 13:23:13 73.25, -27.63 77.00 30.94 72
14 10/02/2021 14:15:08 -73.29, 140.64 102.98 10/02/2021 14:13:55 -73.28, 139.76 102.96 28.37 73
15 10/02/2021 15:05:48 72.99, -51.38 76.73 10/02/2021 15:04:40 72.98, -53.56 76.77 70.75 68
16 10/02/2021 15:56:31 -72.99, 115.93 103.25 10/02/2021 15:55:22 -73.01, 113.83 103.19 68.21 69



Historial Predications of SNOs between FY3D and METOP-C
